UAL2359 KEWR-KPBI

Flight info

Callsign UAL2359
Flight time 2h 21m
Altitude 38000
Route ELVAE NECCK WHITE Q409 CRPLR EARZZ Q131 WAALT Y289 DULEE CLMNT2
Aircraft A319/M-SDE3FGHIRWY/LB1

Departure

Time 2026-04-22 01:56
Airport Newark Liberty International Airport (KEWR)

Arrival

Time 2026-04-22 04:17
Airport Palm Beach International Airport (KPBI)
Time Latitude Longitude Altitude Speed Heading
2026-04-22 01:20 40.69602 -74.17350 23 ft 0 kts 142°
2026-04-22 01:46 40.69603 -74.17351 22 ft 1 kts 142°
2026-04-22 01:46 40.69622 -74.17370 23 ft 3 kts 142°
2026-04-22 01:46 40.69639 -74.17387 23 ft 4 kts 138°
2026-04-22 01:46 40.69656 -74.17412 22 ft 4 kts 126°
2026-04-22 01:47 40.69663 -74.17437 24 ft 4 kts 55°
2026-04-22 01:47 40.69647 -74.17459 25 ft 2 kts 41°
2026-04-22 01:47 40.69645 -74.17461 24 ft 0 kts 41°
2026-04-22 01:49 40.69647 -74.17458 25 ft 2 kts 41°
2026-04-22 01:50 40.69661 -74.17442 23 ft 0 kts 41°
2026-04-22 01:51 40.69669 -74.17433 23 ft 3 kts 41°
2026-04-22 01:51 40.69690 -74.17409 22 ft 5 kts 40°
2026-04-22 01:51 40.69726 -74.17369 23 ft 8 kts 40°
2026-04-22 01:51 40.69775 -74.17317 22 ft 10 kts 41°
2026-04-22 01:52 40.69833 -74.17327 22 ft 11 kts 306°
2026-04-22 01:52 40.69897 -74.17388 22 ft 13 kts
2026-04-22 01:52 40.69994 -74.17376 22 ft 15 kts
2026-04-22 01:52 40.70098 -74.17359 22 ft 13 kts 24°
2026-04-22 01:53 40.70116 -74.17241 24 ft 15 kts 94°
2026-04-22 01:53 40.70106 -74.17087 22 ft 18 kts 95°
2026-04-22 01:53 40.70094 -74.16905 22 ft 21 kts 95°
2026-04-22 01:53 40.70080 -74.16694 22 ft 24 kts 95°
2026-04-22 01:54 40.70069 -74.16526 21 ft 12 kts 95°
2026-04-22 01:54 40.70067 -74.16495 21 ft 1 kts 95°
2026-04-22 01:54 40.70064 -74.16455 20 ft 8 kts 95°
2026-04-22 01:54 40.70031 -74.16375 19 ft 12 kts 162°
2026-04-22 01:55 40.69975 -74.16396 19 ft 1 kts 206°
2026-04-22 01:55 40.69830 -74.16488 21 ft 53 kts 205°
2026-04-22 01:55 40.69311 -74.16817 24 ft 112 kts 206°
2026-04-22 01:55 40.68450 -74.17363 73 ft 157 kts 204°
2026-04-22 01:56 40.67477 -74.17943 758 ft 153 kts 193°
2026-04-22 01:56 40.66428 -74.17902 1454 ft 154 kts 166°
2026-04-22 01:56 40.65375 -74.17614 2097 ft 160 kts 179°
2026-04-22 01:56 40.64275 -74.18102 2448 ft 183 kts 219°
2026-04-22 01:57 40.63262 -74.19308 2832 ft 210 kts 221°
2026-04-22 01:57 40.62030 -74.20559 3361 ft 236 kts 213°
2026-04-22 01:57 40.60624 -74.21779 4274 ft 244 kts 218°
2026-04-22 01:57 40.59218 -74.23142 4911 ft 255 kts 219°
2026-04-22 01:58 40.57792 -74.24520 5040 ft 258 kts 219°
2026-04-22 01:58 40.56300 -74.25834 5037 ft 260 kts 210°
2026-04-22 01:58 40.54571 -74.26568 5036 ft 265 kts 191°
2026-04-22 01:58 40.52718 -74.26548 5056 ft 269 kts 173°
2026-04-22 01:59 40.50923 -74.25766 5716 ft 275 kts 161°
2026-04-22 01:59 40.49107 -74.24838 6530 ft 284 kts 162°
2026-04-22 01:59 40.47230 -74.23907 7273 ft 293 kts 162°
2026-04-22 01:59 40.45299 -74.22952 8063 ft 301 kts 163°
2026-04-22 02:00 40.43314 -74.21977 8877 ft 308 kts 163°
2026-04-22 02:00 40.41284 -74.20978 9694 ft 315 kts 163°
2026-04-22 02:00 40.39196 -74.19955 10331 ft 330 kts 163°
2026-04-22 02:00 40.36968 -74.18872 10629 ft 352 kts 163°
2026-04-22 02:01 40.34639 -74.17736 11225 ft 360 kts 164°
2026-04-22 02:01 40.32210 -74.16914 11973 ft 360 kts 176°
2026-04-22 02:01 40.29721 -74.16722 12746 ft 358 kts 188°
2026-04-22 02:01 40.27275 -74.17152 13504 ft 355 kts 199°
2026-04-22 02:02 40.24863 -74.17891 14237 ft 358 kts 199°
2026-04-22 02:02 40.22413 -74.18636 14880 ft 362 kts 199°
2026-04-22 02:02 40.19946 -74.19380 15542 ft 366 kts 199°
2026-04-22 02:02 40.17452 -74.20127 16195 ft 369 kts 199°
2026-04-22 02:03 40.14939 -74.20876 16851 ft 373 kts 199°
2026-04-22 02:03 40.12399 -74.21633 17499 ft 376 kts 199°
2026-04-22 02:03 40.09829 -74.22399 18158 ft 380 kts 199°
2026-04-22 02:03 40.07245 -74.23171 18803 ft 383 kts 199°
2026-04-22 02:04 40.02038 -74.24877 19877 ft 386 kts 206°
2026-04-22 02:04 39.99607 -74.26324 20418 ft 382 kts 217°
2026-04-22 02:04 39.97404 -74.28236 20971 ft 380 kts 224°
2026-04-22 02:05 39.95267 -74.30287 21523 ft 383 kts 224°
2026-04-22 02:05 39.93110 -74.32354 22066 ft 387 kts 224°
2026-04-22 02:05 39.90932 -74.34436 22595 ft 390 kts 224°
2026-04-22 02:05 39.88731 -74.36532 23103 ft 394 kts 224°
2026-04-22 02:06 39.86508 -74.38644 23619 ft 397 kts 224°
2026-04-22 02:06 39.84263 -74.40773 24080 ft 401 kts 223°
2026-04-22 02:06 39.82028 -74.42946 24505 ft 401 kts 227°
2026-04-22 02:06 39.80022 -74.45429 24957 ft 397 kts 233°
2026-04-22 02:07 39.78086 -74.48006 25415 ft 399 kts 233°
2026-04-22 02:07 39.76141 -74.50595 25864 ft 401 kts 233°
2026-04-22 02:07 39.74188 -74.53190 26310 ft 402 kts 232°
2026-04-22 02:07 39.72224 -74.55792 26749 ft 404 kts 232°
2026-04-22 02:08 39.70250 -74.58404 27197 ft 406 kts 232°
2026-04-22 02:08 39.68268 -74.61026 27632 ft 408 kts 232°
2026-04-22 02:08 39.66954 -74.62766 27917 ft 409 kts 232°
2026-04-22 02:08 39.64955 -74.65408 28358 ft 411 kts 232°
2026-04-22 02:09 39.62945 -74.68059 28772 ft 413 kts 232°
2026-04-22 02:09 39.60925 -74.70722 29210 ft 415 kts 232°
2026-04-22 02:09 39.58893 -74.73394 29626 ft 417 kts 231°
2026-04-22 02:09 39.56851 -74.76078 30044 ft 419 kts 231°
2026-04-22 02:10 39.54800 -74.78774 30437 ft 421 kts 231°
2026-04-22 02:10 39.52739 -74.81480 30776 ft 423 kts 231°
2026-04-22 02:10 39.50668 -74.84197 31097 ft 425 kts 231°
2026-04-22 02:10 39.48588 -74.86927 31415 ft 427 kts 231°
2026-04-22 02:11 39.46497 -74.89667 31706 ft 429 kts 231°
2026-04-22 02:11 39.44394 -74.92417 32003 ft 431 kts 231°
2026-04-22 02:11 39.42286 -74.95173 32304 ft 433 kts 231°
2026-04-22 02:11 39.40169 -74.97935 32744 ft 432 kts 231°
2026-04-22 02:12 39.38058 -75.00685 33167 ft 430 kts 231°
2026-04-22 02:12 39.35954 -75.03423 33622 ft 429 kts 231°
2026-04-22 02:12 39.33854 -75.06157 34054 ft 428 kts 231°
2026-04-22 02:12 39.31758 -75.08883 34434 ft 427 kts 231°
2026-04-22 02:13 39.29657 -75.11606 34781 ft 428 kts 230°
2026-04-22 02:13 39.27507 -75.14266 35070 ft 429 kts 229°
2026-04-22 02:13 39.25332 -75.16841 35363 ft 431 kts 228°
2026-04-22 02:13 39.23096 -75.19417 35663 ft 431 kts 227°
2026-04-22 02:14 39.20848 -75.21979 35952 ft 432 kts 227°
2026-04-22 02:14 39.18599 -75.24544 36227 ft 432 kts 227°
2026-04-22 02:14 39.16356 -75.27118 36517 ft 432 kts 227°
2026-04-22 02:14 39.14123 -75.29703 36798 ft 432 kts 228°
2026-04-22 02:15 39.11868 -75.32332 37077 ft 431 kts 228°
2026-04-22 02:15 39.09645 -75.34929 37336 ft 432 kts 228°
2026-04-22 02:15 39.07422 -75.37526 37577 ft 432 kts 228°
2026-04-22 02:15 39.05198 -75.40056 37833 ft 435 kts 223°
2026-04-22 02:16 39.02633 -75.42252 38087 ft 442 kts 213°
2026-04-22 02:16 38.99834 -75.43834 38251 ft 449 kts 203°
2026-04-22 02:16 38.96784 -75.44798 38286 ft 455 kts 193°
2026-04-22 02:17 38.90469 -75.45675 38282 ft 456 kts 191°
2026-04-22 02:17 38.84155 -75.46539 38303 ft 457 kts 191°
2026-04-22 02:18 38.77830 -75.47415 38313 ft 457 kts 191°
2026-04-22 02:18 38.71494 -75.48286 38310 ft 457 kts 191°
2026-04-22 02:19 38.65169 -75.49155 38279 ft 457 kts 191°
2026-04-22 02:19 38.58839 -75.50018 38293 ft 457 kts 191°
2026-04-22 02:20 38.52508 -75.50869 38315 ft 457 kts 191°
2026-04-22 02:20 38.46178 -75.51724 38319 ft 457 kts 191°
2026-04-22 02:21 38.39851 -75.52578 38313 ft 457 kts 191°
2026-04-22 02:21 38.33737 -75.54334 38321 ft 445 kts 207°
2026-04-22 02:22 38.28436 -75.58149 38324 ft 435 kts 220°
2026-04-22 02:22 38.23440 -75.62519 38321 ft 436 kts 219°
2026-04-22 02:23 38.18433 -75.66868 38313 ft 436 kts 219°
2026-04-22 02:23 38.13430 -75.71214 38316 ft 435 kts 219°
2026-04-22 02:24 38.08455 -75.75516 38312 ft 435 kts 219°
2026-04-22 02:24 38.03450 -75.79846 38314 ft 435 kts 219°
2026-04-22 02:25 37.98450 -75.84170 38310 ft 435 kts 220°
2026-04-22 02:25 37.93461 -75.88474 38325 ft 434 kts 219°
2026-04-22 02:26 37.88471 -75.92773 38332 ft 433 kts 220°
2026-04-22 02:26 37.83488 -75.97071 38326 ft 433 kts 220°
2026-04-22 02:27 37.78502 -76.01356 38310 ft 433 kts 220°
2026-04-22 02:27 37.73510 -76.05628 38317 ft 433 kts 220°
2026-04-22 02:28 37.68515 -76.09893 38321 ft 433 kts 220°
2026-04-22 02:28 37.63526 -76.14163 38324 ft 433 kts 220°
2026-04-22 02:29 37.58132 -76.17673 38301 ft 445 kts 204°
2026-04-22 02:29 37.52238 -76.20094 38307 ft 446 kts 204°
2026-04-22 02:30 37.46347 -76.22535 38304 ft 446 kts 204°
2026-04-22 02:30 37.40455 -76.24985 38308 ft 446 kts 204°
2026-04-22 02:31 37.34566 -76.27434 38304 ft 446 kts 204°
2026-04-22 02:31 37.28664 -76.29876 38316 ft 447 kts 204°
2026-04-22 02:32 37.22758 -76.32308 38316 ft 447 kts 204°
2026-04-22 02:32 37.16851 -76.34743 38320 ft 447 kts 204°
2026-04-22 02:33 37.10941 -76.37176 38300 ft 447 kts 204°
2026-04-22 02:33 37.05032 -76.39597 38310 ft 447 kts 204°
2026-04-22 02:34 36.99113 -76.42016 38317 ft 447 kts 204°
2026-04-22 02:34 36.93194 -76.44437 38316 ft 447 kts 204°
2026-04-22 02:35 36.87315 -76.46841 38341 ft 448 kts 204°
2026-04-22 02:35 36.81394 -76.49255 38347 ft 448 kts 204°
2026-04-22 02:36 36.75474 -76.51666 38347 ft 447 kts 204°
2026-04-22 02:36 36.69516 -76.54087 38336 ft 447 kts 204°
2026-04-22 02:37 36.63639 -76.56471 38346 ft 447 kts 204°
2026-04-22 02:37 36.57732 -76.58868 38350 ft 447 kts 204°
2026-04-22 02:38 36.51818 -76.61261 38328 ft 447 kts 204°
2026-04-22 02:38 36.45903 -76.63643 38308 ft 447 kts 204°
2026-04-22 02:39 36.39994 -76.66022 38319 ft 446 kts 204°
2026-04-22 02:39 36.34091 -76.68403 38335 ft 446 kts 204°
2026-04-22 02:40 36.28192 -76.70781 38344 ft 446 kts 204°
2026-04-22 02:40 36.22300 -76.73144 38330 ft 445 kts 204°
2026-04-22 02:41 36.16405 -76.75495 38351 ft 445 kts 204°
2026-04-22 02:41 36.10518 -76.77849 38358 ft 444 kts 204°
2026-04-22 02:42 36.04639 -76.80206 38364 ft 444 kts 204°
2026-04-22 02:42 35.98764 -76.82560 38340 ft 444 kts 205°
2026-04-22 02:43 35.92887 -76.84893 38346 ft 444 kts 205°
2026-04-22 02:43 35.87326 -76.87925 38350 ft 435 kts 214°
2026-04-22 02:44 35.81935 -76.91261 38359 ft 433 kts 214°
2026-04-22 02:44 35.76543 -76.94579 38351 ft 433 kts 214°
2026-04-22 02:45 35.71156 -76.97887 38368 ft 433 kts 214°
2026-04-22 02:45 35.65770 -77.01190 38370 ft 432 kts 214°
2026-04-22 02:46 35.60387 -77.04490 38372 ft 432 kts 214°
2026-04-22 02:46 35.55009 -77.07794 38359 ft 432 kts 214°
2026-04-22 02:47 35.49626 -77.11091 38345 ft 433 kts 214°
2026-04-22 02:47 35.44229 -77.14377 38343 ft 433 kts 214°
2026-04-22 02:48 35.38834 -77.17660 38345 ft 433 kts 214°
2026-04-22 02:48 35.33431 -77.20949 38343 ft 434 kts 214°
2026-04-22 02:49 35.28023 -77.24227 38328 ft 434 kts 214°
2026-04-22 02:49 35.22651 -77.27474 38343 ft 433 kts 214°
2026-04-22 02:50 35.17253 -77.30749 38354 ft 433 kts 214°
2026-04-22 02:50 35.11862 -77.34012 38361 ft 433 kts 214°
2026-04-22 02:51 35.06469 -77.37265 38345 ft 433 kts 214°
2026-04-22 02:51 35.01061 -77.40527 38346 ft 433 kts 214°
2026-04-22 02:52 34.95661 -77.43785 38355 ft 434 kts 214°
2026-04-22 02:52 34.90246 -77.47037 38361 ft 434 kts 214°
2026-04-22 02:53 34.84828 -77.50284 38324 ft 434 kts 213°
2026-04-22 02:53 34.79411 -77.53529 38335 ft 434 kts 214°
2026-04-22 02:54 34.73998 -77.56775 38351 ft 434 kts 214°
2026-04-22 02:54 34.68584 -77.60016 38344 ft 434 kts 213°
2026-04-22 02:55 34.64086 -77.62700 38349 ft 434 kts 213°
2026-04-22 02:55 34.58668 -77.65926 38331 ft 434 kts 213°
2026-04-22 02:56 34.52873 -77.68287 38344 ft 447 kts 199°
2026-04-22 02:56 34.46777 -77.69828 38345 ft 447 kts 199°
2026-04-22 02:57 34.40685 -77.71372 38343 ft 447 kts 199°
2026-04-22 02:57 34.34596 -77.72911 38319 ft 447 kts 199°
2026-04-22 02:58 34.28524 -77.74459 38329 ft 446 kts 199°
2026-04-22 02:58 34.22450 -77.76008 38334 ft 446 kts 199°
2026-04-22 02:59 34.16377 -77.77550 38339 ft 446 kts 199°
2026-04-22 02:59 34.10303 -77.79088 38322 ft 446 kts 199°
2026-04-22 03:00 34.04234 -77.80616 38341 ft 445 kts 199°
2026-04-22 03:00 33.98172 -77.82137 38352 ft 445 kts 199°
2026-04-22 03:01 33.92116 -77.83665 38361 ft 445 kts 199°
2026-04-22 03:01 33.86066 -77.85190 38333 ft 444 kts 199°
2026-04-22 03:02 33.80015 -77.86708 38350 ft 444 kts 199°
2026-04-22 03:02 33.74047 -77.88478 38352 ft 440 kts 203°
2026-04-22 03:03 33.68192 -77.90563 38357 ft 438 kts 204°
2026-04-22 03:03 33.62342 -77.92657 38362 ft 439 kts 204°
2026-04-22 03:04 33.56498 -77.94659 38334 ft 440 kts 203°
2026-04-22 03:04 33.50552 -77.96651 38323 ft 441 kts 203°
2026-04-22 03:05 33.44644 -77.98629 38331 ft 441 kts 203°
2026-04-22 03:05 33.38730 -78.00621 38336 ft 441 kts 203°
2026-04-22 03:06 33.32856 -78.02610 38325 ft 442 kts 204°
2026-04-22 03:06 33.26935 -78.04605 38333 ft 442 kts 203°
2026-04-22 03:07 33.21011 -78.06587 38333 ft 442 kts 203°
2026-04-22 03:07 33.15089 -78.08576 38338 ft 442 kts 204°
2026-04-22 03:08 33.09170 -78.10557 38311 ft 442 kts 203°
2026-04-22 03:08 33.03242 -78.12539 38331 ft 442 kts 204°
2026-04-22 03:09 32.97312 -78.14528 38344 ft 443 kts 204°
2026-04-22 03:09 32.91376 -78.16510 38347 ft 443 kts 203°
2026-04-22 03:10 32.85439 -78.18489 38358 ft 443 kts 203°
2026-04-22 03:10 32.79504 -78.20460 38349 ft 443 kts 203°
2026-04-22 03:11 32.73571 -78.22428 38353 ft 442 kts 203°
2026-04-22 03:11 32.67643 -78.24390 38356 ft 443 kts 203°
2026-04-22 03:12 32.61700 -78.26359 38353 ft 443 kts 203°
2026-04-22 03:12 32.52806 -78.29303 38336 ft 443 kts 203°
2026-04-22 03:13 32.46873 -78.31268 38341 ft 443 kts 203°
2026-04-22 03:13 32.40978 -78.33213 38347 ft 443 kts 203°
2026-04-22 03:14 32.35043 -78.35162 38345 ft 442 kts 203°
2026-04-22 03:14 32.29110 -78.37103 38331 ft 442 kts 203°
2026-04-22 03:15 32.23190 -78.39049 38339 ft 442 kts 204°
2026-04-22 03:15 32.17264 -78.40995 38339 ft 442 kts 203°
2026-04-22 03:16 32.11337 -78.42938 38342 ft 442 kts 203°
2026-04-22 03:16 32.05409 -78.44875 38324 ft 442 kts 203°
2026-04-22 03:17 31.99485 -78.46806 38336 ft 441 kts 204°
2026-04-22 03:17 31.93566 -78.48740 38333 ft 441 kts 203°
2026-04-22 03:18 31.87649 -78.50665 38336 ft 441 kts 204°
2026-04-22 03:18 31.81733 -78.52588 38331 ft 441 kts 203°
2026-04-22 03:19 31.75825 -78.54501 38337 ft 441 kts 204°
2026-04-22 03:19 31.69920 -78.56424 38339 ft 440 kts 204°
2026-04-22 03:20 31.64017 -78.58343 38339 ft 440 kts 204°
2026-04-22 03:20 31.58115 -78.60254 38336 ft 440 kts 203°
2026-04-22 03:21 31.52258 -78.62155 38311 ft 439 kts 204°
2026-04-22 03:21 31.46402 -78.64156 38319 ft 438 kts 205°
2026-04-22 03:22 31.40521 -78.66200 38324 ft 438 kts 205°
2026-04-22 03:22 31.34716 -78.68198 38321 ft 438 kts 204°
2026-04-22 03:23 31.28878 -78.70194 38310 ft 437 kts 204°
2026-04-22 03:23 31.23046 -78.72186 38326 ft 436 kts 204°
2026-04-22 03:24 31.17223 -78.74171 38338 ft 436 kts 204°
2026-04-22 03:24 31.11405 -78.76148 38338 ft 435 kts 204°
2026-04-22 03:25 31.05590 -78.78121 38335 ft 435 kts 204°
2026-04-22 03:25 30.99780 -78.80089 38319 ft 434 kts 204°
2026-04-22 03:26 30.93981 -78.82059 38331 ft 434 kts 204°
2026-04-22 03:26 30.88193 -78.84024 38331 ft 434 kts 204°
2026-04-22 03:27 30.82399 -78.85981 38330 ft 434 kts 204°
2026-04-22 03:27 30.76605 -78.87938 38335 ft 433 kts 204°
2026-04-22 03:28 30.70815 -78.89887 38323 ft 433 kts 204°
2026-04-22 03:28 30.65031 -78.91833 38336 ft 432 kts 204°
2026-04-22 03:29 30.59252 -78.93772 38343 ft 432 kts 204°
2026-04-22 03:29 30.53479 -78.95714 38342 ft 432 kts 204°
2026-04-22 03:30 30.47708 -78.97647 38316 ft 431 kts 204°
2026-04-22 03:30 30.41950 -78.99567 38331 ft 431 kts 203°
2026-04-22 03:31 30.36105 -79.01236 38335 ft 434 kts 200°
2026-04-22 03:31 30.30199 -79.02705 38336 ft 434 kts 200°
2026-04-22 03:32 30.24296 -79.04171 38336 ft 433 kts 200°
2026-04-22 03:32 30.18456 -79.05686 38334 ft 433 kts 200°
2026-04-22 03:33 30.12587 -79.07241 38339 ft 433 kts 200°
2026-04-22 03:33 30.06716 -79.08781 38341 ft 433 kts 200°
2026-04-22 03:34 30.00846 -79.10311 38339 ft 433 kts 200°
2026-04-22 03:34 29.94973 -79.11839 38339 ft 433 kts 200°
2026-04-22 03:35 29.89102 -79.13364 38316 ft 432 kts 200°
2026-04-22 03:35 29.83231 -79.14889 38321 ft 433 kts 200°
2026-04-22 03:36 29.77354 -79.16398 38323 ft 433 kts 200°
2026-04-22 03:36 29.71480 -79.17886 38325 ft 433 kts 200°
2026-04-22 03:37 29.65600 -79.19374 38295 ft 432 kts 200°
2026-04-22 03:37 29.59724 -79.20875 38312 ft 433 kts 200°
2026-04-22 03:38 29.53845 -79.22379 38314 ft 433 kts 200°
2026-04-22 03:38 29.47962 -79.23875 38319 ft 433 kts 200°
2026-04-22 03:39 29.42076 -79.25366 38321 ft 433 kts 200°
2026-04-22 03:39 29.36189 -79.26859 38301 ft 433 kts 200°
2026-04-22 03:40 29.30300 -79.28345 38308 ft 433 kts 200°
2026-04-22 03:40 29.24417 -79.29831 38307 ft 433 kts 200°
2026-04-22 03:41 29.19520 -79.31072 38315 ft 433 kts 200°
2026-04-22 03:41 29.12679 -79.32807 38316 ft 433 kts 200°
2026-04-22 03:42 29.06788 -79.34285 38288 ft 433 kts 200°
2026-04-22 03:42 29.00893 -79.35762 38300 ft 434 kts 200°
2026-04-22 03:43 28.95951 -79.37008 38207 ft 439 kts 200°
2026-04-22 03:43 28.92950 -79.37769 37929 ft 443 kts 200°
2026-04-22 03:43 28.89974 -79.38521 37661 ft 444 kts 200°
2026-04-22 03:44 28.86957 -79.39274 37400 ft 443 kts 200°
2026-04-22 03:44 28.83946 -79.40023 37145 ft 442 kts 199°
2026-04-22 03:44 28.80943 -79.40768 36857 ft 441 kts 199°
2026-04-22 03:44 28.77947 -79.41515 36602 ft 440 kts 199°
2026-04-22 03:45 28.74972 -79.42257 36312 ft 435 kts 199°
2026-04-22 03:45 28.72024 -79.42991 35865 ft 433 kts 199°
2026-04-22 03:45 28.69085 -79.43723 35434 ft 431 kts 199°
2026-04-22 03:45 28.66162 -79.44454 34986 ft 429 kts 198°
2026-04-22 03:46 28.63249 -79.45184 34533 ft 428 kts 198°
2026-04-22 03:46 28.60348 -79.45911 34041 ft 426 kts 198°
2026-04-22 03:46 28.57462 -79.46632 33574 ft 423 kts 198°
2026-04-22 03:46 28.54594 -79.47346 33099 ft 420 kts 198°
2026-04-22 03:47 28.51758 -79.48052 32672 ft 416 kts 198°
2026-04-22 03:47 28.48938 -79.48753 32234 ft 413 kts 198°
2026-04-22 03:47 28.46138 -79.49451 31799 ft 410 kts 198°
2026-04-22 03:47 28.43359 -79.50145 31364 ft 407 kts 198°
2026-04-22 03:48 28.40597 -79.50836 30952 ft 405 kts 198°
2026-04-22 03:48 28.37857 -79.51520 30540 ft 402 kts 199°
2026-04-22 03:48 28.35134 -79.52198 30091 ft 399 kts 198°
2026-04-22 03:48 28.32433 -79.52866 29683 ft 395 kts 198°
2026-04-22 03:49 28.29756 -79.53530 29281 ft 392 kts 199°
2026-04-22 03:49 28.27117 -79.54214 28904 ft 388 kts 199°
2026-04-22 03:49 28.24501 -79.54927 28507 ft 385 kts 200°
2026-04-22 03:49 28.21913 -79.55650 28139 ft 381 kts 200°
2026-04-22 03:50 28.19344 -79.56369 27750 ft 379 kts 200°
2026-04-22 03:50 28.16790 -79.57076 27364 ft 377 kts 199°
2026-04-22 03:50 28.14250 -79.57770 26967 ft 374 kts 199°
2026-04-22 03:50 28.11724 -79.58457 26571 ft 372 kts 199°
2026-04-22 03:51 28.09213 -79.59138 26180 ft 370 kts 199°
2026-04-22 03:51 28.06714 -79.59813 25763 ft 368 kts 199°
2026-04-22 03:51 28.04226 -79.60487 25357 ft 367 kts 199°
2026-04-22 03:51 28.01747 -79.61160 24933 ft 366 kts 199°
2026-04-22 03:52 27.99274 -79.61832 24516 ft 365 kts 199°
2026-04-22 03:52 27.96803 -79.62504 24066 ft 366 kts 199°
2026-04-22 03:52 27.94329 -79.63175 23561 ft 367 kts 199°
2026-04-22 03:52 27.91853 -79.63841 23084 ft 365 kts 199°
2026-04-22 03:53 27.89390 -79.64505 22627 ft 363 kts 198°
2026-04-22 03:53 27.86940 -79.65168 22157 ft 361 kts 198°
2026-04-22 03:53 27.84532 -79.65821 21712 ft 360 kts 198°
2026-04-22 03:53 27.82104 -79.66477 21258 ft 358 kts 198°
2026-04-22 03:54 27.79656 -79.67139 20790 ft 357 kts 197°
2026-04-22 03:54 27.77279 -79.67781 20342 ft 355 kts 197°
2026-04-22 03:54 27.74845 -79.68436 19889 ft 354 kts 197°
2026-04-22 03:54 27.72450 -79.69083 19439 ft 353 kts 197°
2026-04-22 03:55 27.70062 -79.69728 18990 ft 352 kts 197°
2026-04-22 03:55 27.67680 -79.70373 18519 ft 352 kts 197°
2026-04-22 03:55 27.65316 -79.71013 17787 ft 357 kts 197°
2026-04-22 03:55 27.62912 -79.71664 17329 ft 354 kts 197°
2026-04-22 03:56 27.60524 -79.72308 16883 ft 351 kts 195°
2026-04-22 03:56 27.58157 -79.72947 16436 ft 349 kts 196°
2026-04-22 03:56 27.55805 -79.73580 15996 ft 346 kts 195°
2026-04-22 03:56 27.53466 -79.74207 15558 ft 344 kts 195°
2026-04-22 03:57 27.51145 -79.74828 15124 ft 342 kts 194°
2026-04-22 03:57 27.48838 -79.75443 14690 ft 340 kts 194°
2026-04-22 03:57 27.46540 -79.76057 14262 ft 339 kts 194°
2026-04-22 03:57 27.44252 -79.76670 13798 ft 337 kts 194°
2026-04-22 03:58 27.41980 -79.77281 13363 ft 334 kts 193°
2026-04-22 03:58 27.39726 -79.77886 12938 ft 332 kts 194°
2026-04-22 03:58 27.37489 -79.78488 12517 ft 330 kts 194°
2026-04-22 03:58 27.35265 -79.79086 12100 ft 328 kts 193°
2026-04-22 03:59 27.33053 -79.79681 11679 ft 326 kts 194°
2026-04-22 03:59 27.30856 -79.80271 11270 ft 324 kts 193°
2026-04-22 03:59 27.28668 -79.80858 10859 ft 322 kts 193°
2026-04-22 03:59 27.26491 -79.81441 10451 ft 321 kts 193°
2026-04-22 04:00 27.24320 -79.82022 10036 ft 320 kts 193°
2026-04-22 04:00 27.22177 -79.82594 9793 ft 312 kts 193°
2026-04-22 04:00 27.20151 -79.83387 9489 ft 307 kts 206°
2026-04-22 04:00 27.18263 -79.84506 9032 ft 307 kts 207°
2026-04-22 04:01 27.16373 -79.85641 8600 ft 307 kts 207°
2026-04-22 04:01 27.14503 -79.86763 8236 ft 303 kts 206°
2026-04-22 04:01 27.12644 -79.87876 7628 ft 304 kts 206°
2026-04-22 04:01 27.10785 -79.88985 7127 ft 300 kts 206°
2026-04-22 04:02 27.08963 -79.90070 6705 ft 292 kts 205°
2026-04-22 04:02 27.07196 -79.91120 6334 ft 283 kts 204°
2026-04-22 04:02 27.05489 -79.92138 5988 ft 274 kts 204°
2026-04-22 04:02 27.03804 -79.93143 5667 ft 273 kts 205°
2026-04-22 04:03 27.02131 -79.94138 5347 ft 272 kts 204°
2026-04-22 04:03 27.00464 -79.95129 5026 ft 271 kts 205°
2026-04-22 04:03 26.98795 -79.96120 4686 ft 270 kts 205°
2026-04-22 04:03 26.97138 -79.97101 4358 ft 269 kts 203°
2026-04-22 04:04 26.95488 -79.98086 4072 ft 271 kts 207°
2026-04-22 04:04 26.93932 -79.99344 3996 ft 278 kts 213°
2026-04-22 04:04 26.92386 -80.00681 4011 ft 280 kts 215°
2026-04-22 04:04 26.90839 -80.02013 4013 ft 281 kts 214°
2026-04-22 04:05 26.89284 -80.03349 4013 ft 283 kts 213°
2026-04-22 04:05 26.87729 -80.04683 4008 ft 282 kts 213°
2026-04-22 04:05 26.86171 -80.06018 4006 ft 282 kts 213°
2026-04-22 04:05 26.84618 -80.07352 3996 ft 278 kts 213°
2026-04-22 04:06 26.83130 -80.08642 4005 ft 263 kts 213°
2026-04-22 04:06 26.81778 -80.09924 4002 ft 249 kts 225°
2026-04-22 04:06 26.80865 -80.11511 4012 ft 240 kts 247°
2026-04-22 04:06 26.80472 -80.13302 3995 ft 238 kts 266°
2026-04-22 04:07 26.80349 -80.15149 3954 ft 236 kts 267°
2026-04-22 04:07 26.80214 -80.16988 3905 ft 237 kts 265°
2026-04-22 04:07 26.80063 -80.18812 3854 ft 235 kts 265°
2026-04-22 04:07 26.79898 -80.20635 3802 ft 235 kts 264°
2026-04-22 04:08 26.79723 -80.22454 3750 ft 235 kts 264°
2026-04-22 04:08 26.79544 -80.24268 3699 ft 235 kts 263°
2026-04-22 04:08 26.79363 -80.26090 3638 ft 235 kts 263°
2026-04-22 04:08 26.79183 -80.27875 3596 ft 235 kts 263°
2026-04-22 04:09 26.79000 -80.29690 3544 ft 234 kts 264°
2026-04-22 04:09 26.78815 -80.31497 3488 ft 234 kts 263°
2026-04-22 04:09 26.78342 -80.33233 3299 ft 232 kts 236°
2026-04-22 04:09 26.77277 -80.34482 3221 ft 213 kts 206°
2026-04-22 04:10 26.75955 -80.35053 3151 ft 199 kts 181°
2026-04-22 04:10 26.74603 -80.35050 3060 ft 192 kts 169°
2026-04-22 04:10 26.73274 -80.34970 2995 ft 191 kts 169°
2026-04-22 04:10 26.71951 -80.34895 3001 ft 191 kts 169°
2026-04-22 04:11 26.70653 -80.34698 3006 ft 184 kts 150°
2026-04-22 04:11 26.69675 -80.33873 3009 ft 173 kts 120°
2026-04-22 04:11 26.69251 -80.32659 3008 ft 167 kts 93°
2026-04-22 04:11 26.69193 -80.31364 3008 ft 167 kts 90°
2026-04-22 04:12 26.69140 -80.30065 3009 ft 167 kts 90°
2026-04-22 04:12 26.69086 -80.28772 3009 ft 166 kts 91°
2026-04-22 04:12 26.69032 -80.27482 2917 ft 166 kts 91°
2026-04-22 04:12 26.68978 -80.26194 2741 ft 165 kts 91°
2026-04-22 04:13 26.68924 -80.24949 2562 ft 154 kts 91°
2026-04-22 04:13 26.68875 -80.23796 2348 ft 143 kts 90°
2026-04-22 04:13 26.68830 -80.22742 2169 ft 130 kts 90°
2026-04-22 04:13 26.68788 -80.21755 2013 ft 125 kts 90°
2026-04-22 04:14 26.68747 -80.20796 1846 ft 122 kts 90°
2026-04-22 04:14 26.68707 -80.19852 1682 ft 121 kts 91°
2026-04-22 04:14 26.68667 -80.18910 1517 ft 121 kts 90°
2026-04-22 04:14 26.68627 -80.17972 1357 ft 121 kts 90°
2026-04-22 04:15 26.68587 -80.17034 1195 ft 120 kts 90°
2026-04-22 04:15 26.68547 -80.16102 1039 ft 119 kts 89°
2026-04-22 04:15 26.68507 -80.15164 867 ft 122 kts 92°
2026-04-22 04:15 26.68466 -80.14219 723 ft 123 kts 91°
2026-04-22 04:16 26.68425 -80.13262 532 ft 123 kts 92°
2026-04-22 04:16 26.68341 -80.11355 203 ft 121 kts 91°
2026-04-22 04:16 26.68301 -80.10421 50 ft 119 kts 89°
2026-04-22 04:17 26.68267 -80.09596 22 ft 92 kts 91°
2026-04-22 04:17 26.68245 -80.09075 22 ft 42 kts 93°
2026-04-22 04:17 26.68245 -80.08868 22 ft 17 kts 60°
2026-04-22 04:17 26.68345 -80.08872 22 ft 16 kts 295°
2026-04-22 04:18 26.68352 -80.09003 22 ft 18 kts 273°
2026-04-22 04:18 26.68356 -80.09105 22 ft 10 kts 272°
2026-04-22 04:18 26.68359 -80.09194 22 ft 13 kts 274°
2026-04-22 04:18 26.68365 -80.09304 24 ft 15 kts 276°
2026-04-22 04:19 26.68436 -80.09389 22 ft 16 kts 344°
2026-04-22 04:19 26.68516 -80.09318 23 ft 16 kts 50°
2026-04-22 04:19 26.68575 -80.09246 23 ft 8 kts 47°
2026-04-22 04:19 26.68614 -80.09247 22 ft 8 kts 315°
2026-04-22 04:20 26.68644 -80.09278 22 ft 2 kts 318°